Event-Kalender
Terminkalender Drucken Email help
Jahresansicht Monatsansicht Wochenansicht Heute Suche Zum ausgwählten Monat wechseln
Termine für
Sonntag, 30. Juli 2017



JEvents v1.5.5e   Copyright © 2006-2011

Zufallsbild

Aktuelle Termine

Mo Di Mi Do Fr Sa So
26 27 28 29 30 1 2
3 4 5 6 7 8 9
10 11 12 13 14 15 16
17 18 19 20 21 22 23
24 25 26 27 28 29 30
31 1 2 3 4 5 6

Pilotenwetter

[source: ADDS]
METAR
EDDH 181920Z 16006KT CAVOK 03/M03 Q1024 NOSIG =
TAF
TAF EDDH 181700Z 1818/1924 18005KT 9999 FEW035 BECMG 1916/1918 11004KT =